When you browse on this site, cookies collect data to enhance your experience and personalize the content and advertising you see.
Visit our Privacy Policy to learn more. By continuing to use the site, you agree to this use of cookies and data.
  • In Österreich
  • Länderverzeichnis
  • Für 7 Tage
  • Wassertemperatur
  • Satellitenkarten
  • Wetterkarte
  • News
  • Widgets
  • user-avatar
    Anmelden

    Stündliche Wetter Trabzon

    Heute, 18 Januar, Freitag

    Zeit Temperatur Niederschläge Wind Luftdruck Luftfeuchtigkeit
    00:00 +1°C° 0 mm 5 m/S 769 mmHg 73%
    01:00 +1°C° 0 mm 5 m/S 769 mmHg 73%
    02:00 +1°C° 0 mm 4 m/S 769 mmHg 73%
    03:00 +3°C° 0 mm 4 m/S 769 mmHg 69%
    04:00 +3°C° 0 mm 4 m/S 769 mmHg 68%
    05:00 +3°C° 0 mm 3 m/S 769 mmHg 67%
    06:00 +3°C° 0 mm 3 m/S 770 mmHg 66%
    07:00 +3°C° 0 mm 3 m/S 770 mmHg 64%
    08:00 +5°C° 0 mm 2 m/S 770 mmHg 62%
    09:00 +6°C° 0 mm 2 m/S 769 mmHg 61%
    10:00 +7°C° 0 mm 2 m/S 769 mmHg 57%
    11:00 +9°C° 0 mm 1 m/S 769 mmHg 53%
    12:00 +10°C° 0 mm 1 m/S 769 mmHg 49%
    13:00 +9°C° 0 mm 2 m/S 768 mmHg 51%
    14:00 +9°C° 0 mm 2 m/S 768 mmHg 52%
    15:00 +9°C° 0 mm 2 m/S 767 mmHg 56%
    16:00 +8°C° 0 mm 2 m/S 768 mmHg 59%
    17:00 +7°C° 0 mm 3 m/S 768 mmHg 62%
    18:00 +5°C° 0 mm 3 m/S 768 mmHg 65%
    19:00 +5°C° 0 mm 3 m/S 768 mmHg 63%
    20:00 +5°C° 0 mm 4 m/S 768 mmHg 60%
    21:00 +5°C° 0 mm 4 m/S 769 mmHg 58%
    22:00 +5°C° 0 mm 4 m/S 769 mmHg 55%
    23:00 +5°C° 0 mm 4 m/S 769 mmHg 52%

    Morgen, 19 Januar, Samstag

    Zeit Temperatur Niederschläge Wind Luftdruck Luftfeuchtigkeit
    00:00 +5°C° 0 mm 4 m/S 769 mmHg 50%
    01:00 +5°C° 0 mm 4 m/S 769 mmHg 48%
    02:00 +5°C° 0 mm 4 m/S 768 mmHg 47%
    03:00 +5°C° 0 mm 4 m/S 768 mmHg 45%
    04:00 +5°C° 0 mm 4 m/S 768 mmHg 44%
    05:00 +5°C° 0 mm 4 m/S 768 mmHg 43%
    06:00 +5°C° 0 mm 4 m/S 768 mmHg 42%
    07:00 +5°C° 0 mm 4 m/S 768 mmHg 42%
    08:00 +6°C° 0 mm 4 m/S 768 mmHg 42%
    09:00 +7°C° 0 mm 3 m/S 768 mmHg 42%
    10:00 +9°C° 0 mm 3 m/S 768 mmHg 42%
    11:00 +10°C° 0 mm 2 m/S 768 mmHg 42%
    12:00 +13°C° 0 mm 1 m/S 767 mmHg 41%
    13:00 +13°C° 0 mm 1 m/S 767 mmHg 44%
    14:00 +13°C° 0 mm 1 m/S 767 mmHg 47%
    15:00 +12°C° 0 mm 2 m/S 767 mmHg 50%
    16:00 +11°C° 0 mm 1 m/S 767 mmHg 53%
    17:00 +10°C° 0 mm 1 m/S 768 mmHg 56%
    18:00 +9°C° 0 mm 1 m/S 768 mmHg 59%
    19:00 +9°C° 0 mm 1 m/S 768 mmHg 58%
    20:00 +8°C° 0 mm 2 m/S 768 mmHg 56%
    21:00 +7°C° 0 mm 2 m/S 769 mmHg 55%
    22:00 +7°C° 0 mm 2 m/S 769 mmHg 54%
    23:00 +7°C° 0 mm 2 m/S 769 mmHg 52%

    übermorgen, 20 Januar, Sonntag

    Zeit Temperatur Niederschläge Wind Luftdruck Luftfeuchtigkeit
    00:00 +7°C° 0 mm 3 m/S 769 mmHg 51%
    01:00 +7°C° 0 mm 3 m/S 769 mmHg 50%
    02:00 +5°C° 0 mm 3 m/S 769 mmHg 49%
    03:00 +5°C° 0 mm 3 m/S 769 mmHg 48%
    04:00 +5°C° 0 mm 3 m/S 769 mmHg 48%
    05:00 +5°C° 0 mm 3 m/S 769 mmHg 47%
    06:00 +5°C° 0 mm 3 m/S 769 mmHg 46%
    07:00 +5°C° 0 mm 3 m/S 769 mmHg 46%
    08:00 +7°C° 0 mm 3 m/S 769 mmHg 45%
    09:00 +7°C° 0 mm 3 m/S 770 mmHg 45%
    10:00 +9°C° 0 mm 2 m/S 769 mmHg 44%
    11:00 +10°C° 0 mm 2 m/S 769 mmHg 44%
    12:00 +13°C° 0 mm 1 m/S 768 mmHg 43%
    13:00 +13°C° 0 mm 2 m/S 768 mmHg 46%
    14:00 +13°C° 0 mm 2 m/S 768 mmHg 49%
    15:00 +11°C° 0 mm 3 m/S 767 mmHg 52%
    16:00 +10°C° 0 mm 3 m/S 767 mmHg 55%
    17:00 +9°C° 0 mm 3 m/S 768 mmHg 59%
    18:00 +8°C° 0 mm 3 m/S 768 mmHg 62%
    19:00 +8°C° 0 mm 3 m/S 768 mmHg 59%
    20:00 +7°C° 0 mm 3 m/S 768 mmHg 55%
    21:00 +6°C° 0 mm 4 m/S 768 mmHg 52%
    22:00 +6°C° 0 mm 4 m/S 768 mmHg 51%
    23:00 +6°C° 0 mm 4 m/S 768 mmHg 50%

    21 Januar, Montag

    Zeit Temperatur Niederschläge Wind Luftdruck Luftfeuchtigkeit
    00:00 +6°C° 0 mm 4 m/S 768 mmHg 49%
    01:00 +6°C° 0 mm 4 m/S 768 mmHg 49%
    02:00 +6°C° 0 mm 4 m/S 768 mmHg 49%
    03:00 +6°C° 0 mm 4 m/S 768 mmHg 49%
    04:00 +6°C° 0 mm 4 m/S 768 mmHg 49%
    05:00 +6°C° 0 mm 4 m/S 768 mmHg 49%
    06:00 +6°C° 0 mm 5 m/S 767 mmHg 49%
    07:00 +6°C° 0 mm 5 m/S 767 mmHg 48%
    08:00 +6°C° 0 mm 5 m/S 767 mmHg 48%
    09:00 +7°C° 0 mm 5 m/S 767 mmHg 47%
    10:00 +8°C° 0 mm 4 m/S 767 mmHg 48%
    11:00 +11°C° 0 mm 3 m/S 766 mmHg 48%
    12:00 +13°C° 0 mm 2 m/S 765 mmHg 48%
    13:00 +13°C° 0 mm 2 m/S 765 mmHg 48%
    14:00 +14°C° 0 mm 2 m/S 764 mmHg 49%
    15:00 +14°C° 0 mm 2 m/S 764 mmHg 49%
    16:00 +12°C° 0 mm 2 m/S 764 mmHg 50%
    17:00 +10°C° 0 mm 3 m/S 765 mmHg 51%
    18:00 +9°C° 0 mm 3 m/S 765 mmHg 52%
    19:00 +8°C° 0 mm 4 m/S 766 mmHg 51%
    20:00 +7°C° 0 mm 4 m/S 766 mmHg 50%
    21:00 +7°C° 0 mm 5 m/S 766 mmHg 48%
    22:00 +7°C° 0 mm 5 m/S 767 mmHg 49%
    23:00 +7°C° 0 mm 4 m/S 767 mmHg 50%

    22 Januar, Dienstag

    Zeit Temperatur Niederschläge Wind Luftdruck Luftfeuchtigkeit
    00:00 +7°C° 0 mm 4 m/S 767 mmHg 51%
    01:00 +6°C° 0 mm 4 m/S 767 mmHg 52%
    02:00 +6°C° 0 mm 4 m/S 767 mmHg 52%
    03:00 +6°C° 0 mm 4 m/S 767 mmHg 52%
    04:00 +6°C° 0 mm 4 m/S 767 mmHg 53%
    05:00 +6°C° 0 mm 4 m/S 767 mmHg 53%
    06:00 +6°C° 0 mm 4 m/S 767 mmHg 53%
    07:00 +7°C° 0 mm 3 m/S 767 mmHg 54%
    08:00 +8°C° 0 mm 3 m/S 767 mmHg 54%
    09:00 +8°C° 0 mm 3 m/S 768 mmHg 55%
    10:00 +9°C° 0 mm 2 m/S 767 mmHg 54%
    11:00 +10°C° 0 mm 2 m/S 767 mmHg 53%
    12:00 +12°C° 0 mm 2 m/S 766 mmHg 53%
    13:00 +12°C° 0 mm 2 m/S 766 mmHg 58%
    14:00 +12°C° 0 mm 2 m/S 766 mmHg 64%
    15:00 +10°C° 0 mm 2 m/S 765 mmHg 70%
    16:00 +9°C° 0 mm 2 m/S 766 mmHg 74%
    17:00 +9°C° 0 mm 2 m/S 766 mmHg 79%
    18:00 +8°C° 0 mm 2 m/S 766 mmHg 84%
    19:00 +7°C° 0 mm 2 m/S 766 mmHg 78%
    20:00 +7°C° 0 mm 2 m/S 766 mmHg 72%
    21:00 +7°C° 0 mm 2 m/S 766 mmHg 67%
    22:00 +7°C° 0 mm 3 m/S 766 mmHg 62%
    23:00 +7°C° 0 mm 3 m/S 766 mmHg 58%

    23 Januar, Mittwoch

    Zeit Temperatur Niederschläge Wind Luftdruck Luftfeuchtigkeit
    00:00 +7°C° 0 mm 3 m/S 765 mmHg 54%
    01:00 +7°C° 0 mm 3 m/S 765 mmHg 54%
    02:00 +7°C° 0 mm 3 m/S 765 mmHg 54%
    03:00 +7°C° 0 mm 3 m/S 765 mmHg 55%
    04:00 +6°C° 0 mm 4 m/S 765 mmHg 55%
    05:00 +6°C° 0 mm 4 m/S 764 mmHg 55%
    06:00 +6°C° 0 mm 4 m/S 764 mmHg 56%
    07:00 +6°C° 0 mm 4 m/S 764 mmHg 55%
    08:00 +7°C° 0 mm 4 m/S 764 mmHg 54%
    09:00 +7°C° 0 mm 4 m/S 764 mmHg 53%
    10:00 +8°C° 0 mm 4 m/S 764 mmHg 52%
    11:00 +11°C° 0 mm 3 m/S 764 mmHg 52%
    12:00 +12°C° 0 mm 3 m/S 763 mmHg 52%
    13:00 +13°C° 0 mm 3 m/S 763 mmHg 52%
    14:00 +13°C° 0 mm 3 m/S 762 mmHg 52%
    15:00 +13°C° 0 mm 3 m/S 762 mmHg 52%
    16:00 +12°C° 0 mm 4 m/S 762 mmHg 53%
    17:00 +11°C° 0 mm 4 m/S 762 mmHg 53%
    18:00 +9°C° 0 mm 5 m/S 763 mmHg 53%
    19:00 +9°C° 0 mm 5 m/S 763 mmHg 53%
    20:00 +9°C° 0 mm 5 m/S 763 mmHg 53%
    21:00 +9°C° 0 mm 6 m/S 763 mmHg 53%
    22:00 +9°C° 0 mm 6 m/S 764 mmHg 53%
    23:00 +8°C° 0 mm 6 m/S 764 mmHg 53%
    Mehr zeigen